Location: Sperry Observatory
(40.6664°N, 74.3236°W)
Time: 13:06:47
(UTC-04:00)

Amateur Radio Satellites - All Passes

Search period start: 27 April 2015 12:36
Search period end: 28 April 2015 12:36
Location: Sperry Observatory, 40.6664°N, 74.3236°W

Satellite Date Start Highest point End Downlink Frequencies (MHz)
Time Altitude Azimuth
SPROUT 27 Apr 12:40:57 12:44:50 32° 96° (E) 12:48:47 437.525
YUBILEINY 27 Apr 12:41:28 12:49:07 30° 293° (WNW) 12:56:32 435.215
BEESAT 3 27 Apr 12:52:45 12:54:49 13° 250° (WSW) 12:56:42 437.485
BEESAT 2 27 Apr 12:56:15 12:58:41 15° 249° (WSW) 13:00:55 435.950
Gurwin Techsat 1B 27 Apr 12:56:57 12:57:20 10° 59° (ENE) 12:58:04 435.225
CUBEBUG 1 27 Apr 13:03:40 13:07:42 37° 289° (WNW) 13:11:43 437.445
VELOX 1 27 Apr 13:04:27 13:07:43 20° 293° (WNW) 13:10:52 145.980
50 SAT 27 Apr 13:05:37 13:07:54 14° 294° (WNW) 13:10:00 437.505
Oscar 19 27 Apr 13:11:37 13:16:34 50° 72° (ENE) 13:21:36 437.125/150
ISS 27 Apr 13:14:00 13:16:35 21° 339° (NNW) 13:19:09 145.825
RS-15 27 Apr 13:21:27 13:30:44 36° 108° (ESE) 13:40:25 29.354- 29.394
AISAT 27 Apr 13:24:09 13:26:13 13° 296° (WNW) 13:28:05 437.250
SO-50 27 Apr 13:29:42 13:32:15 14° 324° (NW) 13:34:42 436.795
BEESAT 27 Apr 13:31:47 13:34:17 15° 90° (E) 13:37:01 436.000
SWISSCUBE 27 Apr 13:34:14 13:37:13 17° 91° (E) 13:40:23 437.505
TISAT 1 27 Apr 13:38:45 13:43:00 71° 285° (WNW) 13:47:14 437.305
ITAMSAT 1 27 Apr 13:50:50 13:55:31 37° 69° (ENE) 14:00:17 435.822/435.867
Cosmos 2504 27 Apr 14:01:12 14:10:08 81° 279° (W) 14:18:55 435.465 / 435.565
SPROUT 27 Apr 14:17:24 14:20:47 22° 292° (WNW) 14:24:04 437.525
HORYU 2 27 Apr 14:18:41 14:19:02 10° 62° (ENE) 14:19:39 437.375
Gurwin Techsat 1B 27 Apr 14:31:14 14:36:32 76° 75° (ENE) 14:41:52 435.225
KKS-1 27 Apr 14:33:57 14:34:55 11° 88° (E) 14:36:12 437.445
ITUPSAT 1 27 Apr 14:38:14 14:43:00 70° 102° (ESE) 14:47:45 437.325
ISS 27 Apr 14:52:29 14:53:52 12° 359° (N) 14:55:16 145.825
Oscar 19 27 Apr 14:52:34 14:56:17 19° 269° (W) 14:59:51 437.125/150
JAS-2 27 Apr 14:53:08 14:59:28 29° 64° (ENE) 15:05:44 435.910
AO-7 27 Apr 15:04:20 15:11:48 41° 62° (ENE) 15:19:24 29.400- 29.500
BEESAT 27 Apr 15:07:54 15:12:35 57° 287° (WNW) 15:17:13 436.000
GONETS M04 27 Apr 15:09:48 15:15:08 19° 80° (E) 15:20:59
SWISSCUBE 27 Apr 15:10:49 15:15:25 49° 288° (WNW) 15:19:59 437.505
STARS 27 Apr 15:21:39 15:25:11 23° 94° (E) 15:28:48 437.465
ITAMSAT 1 27 Apr 15:30:46 15:35:08 26° 266° (W) 15:39:25 435.822/435.867
RS-15 27 Apr 15:31:42 15:42:31 65° 309° (NW) 15:53:36 29.354- 29.394
PCSat 27 Apr 15:50:04 15:53:20 16° 41° (NE) 15:56:46 145.827
HORYU 2 27 Apr 15:50:34 15:55:04 85° 260° (W) 15:59:36 437.375
Cosmos 2504 27 Apr 15:59:26 16:05:07 17° 300° (WNW) 16:10:16 435.465 / 435.565
VERMONT LUNAR 27 Apr 16:07:14 16:10:17 32° 157° (SSE) 16:13:22 437.305
KKS-1 27 Apr 16:07:39 16:12:08 69° 285° (WNW) 16:16:36 437.445
Gurwin Techsat 1B 27 Apr 16:14:41 16:17:12 13° 273° (W) 16:19:25 435.225
ITUPSAT 1 27 Apr 16:18:01 16:20:23 13° 297° (WNW) 16:22:31 437.325
ISS 27 Apr 16:28:45 16:31:11 19° 19° (NNE) 16:33:38 145.825
JAS-2 27 Apr 16:36:14 16:44:04 64° 260° (W) 16:51:36 435.910
MOZHAYETS 4 27 Apr 16:49:40 16:53:14 23° 93° (E) 16:56:53
PHONESAT 2.4 27 Apr 16:55:55 16:59:03 29° 155° (SSE) 17:02:14 2401.200-2431.200
AO-7 27 Apr 16:56:38 17:04:33 47° 260° (W) 17:12:25 29.400- 29.500
STARS 27 Apr 16:57:43 17:01:43 32° 290° (WNW) 17:05:37 437.465
CUTE-I 27 Apr 16:57:52 17:00:25 14° 61° (ENE) 17:03:14 437.470
GONETS M04 27 Apr 17:02:11 17:10:58 86° 277° (W) 17:19:52
CUSAT 1 27 Apr 17:03:57 17:07:31 46° 92° (E) 17:12:16 437.405
Cubesat XI-IV 27 Apr 17:07:16 17:10:35 18° 63° (ENE) 17:14:05 437.490
PCSat 27 Apr 17:32:08 17:37:36 90° 191° (SSW) 17:43:01 145.827
VERMONT LUNAR 27 Apr 17:44:11 17:47:34 83° 173° (S) 17:50:58 437.305
RS-15 27 Apr 17:49:05 17:57:46 25° 339° (NNW) 18:06:30 29.354- 29.394
DANDE 27 Apr 17:57:17 18:00:42 57° 284° (WNW) 18:05:17 436.750
ISS 27 Apr 18:04:38 18:07:54 85° 217° (SW) 18:11:09 145.825
Cosmos 2499 27 Apr 18:16:36 18:25:09 56° 91° (E) 18:33:30 435.465 / 435.565
MOZHAYETS 4 27 Apr 18:26:24 18:30:34 34° 289° (WNW) 18:34:39
JAS-2 27 Apr 18:28:29 18:30:32 11° 278° (W) 18:31:52 435.910
CUBESAT XI-V 27 Apr 18:32:03 18:35:32 22° 92° (E) 18:39:08 437.345
PHONESAT 2.4 27 Apr 18:33:29 18:37:04 78° 172° (S) 18:40:40 2401.200-2431.200
CUTE-I 27 Apr 18:34:35 18:39:55 80° 257° (WSW) 18:45:16 437.470
M-CUBED/EXP-1 PRIME 27 Apr 18:35:39 18:38:11 16° 95° (E) 18:40:43 437.505
SO-50 27 Apr 18:38:47 18:41:35 15° 37° (NE) 18:44:32 436.795
Cubesat XI-IV 27 Apr 18:44:56 18:50:14 64° 259° (WSW) 18:55:32 437.490
CUSAT 1 27 Apr 18:48:41 18:51:03 14° 302° (WNW) 18:53:33 437.405
GONETS M04 27 Apr 19:03:39 19:09:26 18° 301° (WNW) 19:14:47
AUBIESAT-1 27 Apr 19:15:03 19:18:54 41° 102° (ESE) 19:22:27 437.475
PCSat 27 Apr 19:18:35 19:20:20 11° 256° (WSW) 19:21:42 145.827
VERMONT LUNAR 27 Apr 19:21:38 19:25:02 76° 190° (S) 19:28:25 437.305
STRAND 1 27 Apr 19:29:28 19:34:13 39° 97° (E) 19:38:59 437.568
BRITE-PL 27 Apr 19:31:14 19:34:22 21° 67° (ENE) 19:37:43 437.365/2234.400
DOVE 4 27 Apr 19:36:09 19:36:59 11° 62° (ENE) 19:38:06 437.250
PRISM 27 Apr 19:45:08 19:49:15 77° 102° (ESE) 19:53:20 437.425
COMPASS 1 27 Apr 20:02:55 20:05:18 15° 66° (ENE) 20:07:50 437.405
CINEMA 3 27 Apr 20:03:59 20:05:07 11° 62° (ENE) 20:06:32 145.822/145.860
RS-15 27 Apr 20:07:25 20:15:32 22° 14° (NNE) 20:24:05 29.354- 29.394
CUBESAT XI-V 27 Apr 20:08:53 20:13:07 36° 289° (WNW) 20:17:19 437.345
M-CUBED/EXP-1 PRIME 27 Apr 20:09:28 20:13:19 37° 295° (WNW) 20:16:51 437.505
Cosmos 2499 27 Apr 20:10:51 20:18:43 33° 291° (WNW) 20:26:12 435.465 / 435.565
HO-68 27 Apr 20:11:31 20:18:22 51° 68° (ENE) 20:25:18 435.675
PHONESAT 2.4 27 Apr 20:11:43 20:15:19 82° 188° (S) 20:18:54 2401.200-2431.200
SO-50 27 Apr 20:17:58 20:22:57 84° 57° (ENE) 20:27:51 436.795
SEEDS 27 Apr 20:30:13 20:34:07 36° 72° (ENE) 20:38:04 437.485
Oscar 11 27 Apr 20:33:00 20:35:07 14° 65° (ENE) 20:37:27 145.826/435.025
AAUSAT CUBESAT 2 27 Apr 20:42:02 20:45:50 34° 72° (ENE) 20:49:41 437.432
CANX-2 27 Apr 20:42:02 20:46:18 67° 75° (ENE) 20:50:36 2200.000
GOMX 1 27 Apr 20:44:15 20:48:27 87° 82° (E) 20:52:55 467.674
AUBIESAT-1 27 Apr 20:50:44 20:53:20 16° 301° (WNW) 20:55:42 437.475
CUTE 1.7 + AOD 2 27 Apr 20:50:48 20:55:06 76° 75° (ENE) 20:59:25 437.475
YUBILEINY 27 Apr 20:54:14 21:01:24 28° 66° (ENE) 21:08:46 435.215
VERMONT LUNAR 27 Apr 20:59:20 21:02:15 27° 206° (SSW) 21:05:09 437.305
STRAND 1 27 Apr 21:09:05 21:13:15 25° 294° (WNW) 21:17:19 437.568
BRITE-PL 27 Apr 21:09:06 21:12:48 30° 265° (W) 21:16:36 437.365/2234.400
DOVE 4 27 Apr 21:09:51 21:14:07 76° 258° (WSW) 21:18:38 437.250
DX 1 27 Apr 21:10:57 21:12:37 12° 63° (ENE) 21:14:30 434.975-435.025
CUBEBUG 2 27 Apr 21:21:39 21:25:41 38° 71° (ENE) 21:29:55 437.445
COMPASS 1 27 Apr 21:36:31 21:40:38 48° 261° (W) 21:44:46 437.405
CINEMA 3 27 Apr 21:37:20 21:41:41 76° 259° (W) 21:46:17 145.822/145.860
DELFI C3 27 Apr 21:37:50 21:41:46 49° 74° (ENE) 21:45:44 145.870
O/OREOS (USA 219) 27 Apr 21:41:51 21:46:01 36° 106° (ESE) 21:50:14 437.305
UWE-3 27 Apr 21:42:45 21:47:00 52° 73° (ENE) 21:51:25 435.000/436.395/437.385
FUNcube-1 27 Apr 21:46:18 21:50:27 44° 72° (ENE) 21:54:44 145.935
UKube-1 27 Apr 21:48:32 21:52:13 28° 69° (ENE) 21:55:58 .
PHONESAT 2.4 27 Apr 21:50:06 21:53:21 33° 204° (SSW) 21:56:36 2401.200-2431.200
HUMSAT D 27 Apr 21:50:06 21:53:28 24° 69° (ENE) 21:56:57 437.325/437.525
HO-68 27 Apr 22:00:06 22:06:23 31° 266° (W) 22:12:33 435.675
SO-50 27 Apr 22:01:06 22:02:54 12° 252° (WSW) 22:04:24 436.795
Oscar 11 27 Apr 22:06:36 22:10:53 57° 260° (W) 22:15:11 145.826/435.025
SEEDS 27 Apr 22:06:58 22:10:05 19° 268° (W) 22:13:04 437.485
ZACube-1 27 Apr 22:12:24 22:16:46 88° 74° (ENE) 22:21:17 437.345
50 SAT 27 Apr 22:14:50 22:18:09 26° 70° (ENE) 22:21:35 437.505
TIGRISAT 27 Apr 22:16:34 22:16:59 10° 86° (E) 22:17:43 435.000
AAUSAT CUBESAT 2 27 Apr 22:18:26 22:21:34 20° 268° (W) 22:24:37 437.432
UNISAT 6 27 Apr 22:20:43 22:22:29 12° 88° (E) 22:24:29 437.425
RS-15 27 Apr 22:20:45 22:31:45 49° 45° (NE) 22:43:19 29.354- 29.394
CANX-2 27 Apr 22:21:58 22:22:47 10° 273° (W) 22:23:19 2200.000
VELOX 1 27 Apr 22:24:43 22:28:39 34° 71° (ENE) 22:32:39 145.980
CUBEBUG 1 27 Apr 22:24:45 22:27:23 17° 66° (ENE) 22:30:11 437.445
Cosmos 2491 27 Apr 22:39:29 22:48:00 63° 92° (E) 22:56:39 435.465 / 435.565
AISAT 27 Apr 22:43:09 22:47:26 56° 74° (ENE) 22:51:46 437.250
DX 1 27 Apr 22:44:06 22:48:24 64° 258° (WSW) 22:52:44 434.975-435.025
YUBILEINY 27 Apr 22:50:20 22:58:56 63° 268° (W) 23:07:26 435.215
CUBEBUG 2 27 Apr 22:59:19 23:02:36 20° 269° (W) 23:05:49 437.445
ANTELSAT 27 Apr 23:00:56 23:05:10 33° 96° (E) 23:09:22 437.575/2403.000
QB50P2 27 Apr 23:07:24 23:10:16 18° 92° (E) 23:13:16 145.880/145.840
DELFI C3 27 Apr 23:15:20 23:17:15 13° 271° (W) 23:18:59 145.870
UWE-3 27 Apr 23:21:30 23:23:58 14° 272° (W) 23:26:14 435.000/436.395/437.385
O/OREOS (USA 219) 27 Apr 23:21:54 23:25:35 23° 303° (WNW) 23:29:10 437.305
NANOSAT C BR1 27 Apr 23:23:19 23:26:53 26° 95° (E) 23:30:31 145.865
FUNcube-1 27 Apr 23:24:14 23:27:05 16° 270° (W) 23:29:49 145.935
UKube-1 27 Apr 23:24:47 23:28:21 24° 265° (W) 23:31:52 .
HUMSAT D 27 Apr 23:25:24 23:29:07 29° 265° (W) 23:32:51 437.325/437.525
POPSAT HIP 1 27 Apr 23:27:30 23:31:13 29° 95° (E) 23:35:00 437.405
ESTCUBE 1 27 Apr 23:30:04 23:34:35 86° 255° (WSW) 23:39:07 437.505/2401.250
SPROUT 27 Apr 23:35:14 23:38:40 25° 69° (ENE) 23:42:13 437.525
BUGSAT 1 27 Apr 23:39:36 23:43:06 26° 95° (E) 23:46:43 437.445
50 SAT 27 Apr 23:49:41 23:52:57 23° 266° (W) 23:56:10 437.505
TIGRISAT 27 Apr 23:49:41 23:54:25 78° 284° (WNW) 23:59:03 435.000
UNISAT 6 27 Apr 23:55:07 23:59:49 66° 286° (WNW) 00:04:24 437.425
Cosmos 2504 27 Apr 23:55:38 00:02:49 36° 70° (ENE) 00:09:38 435.465 / 435.565
DUCHIFAT 1 27 Apr 23:56:02 00:00:17 60° 101° (E) 00:04:30 145.980
POLYITAN 1 27 Apr 23:57:58 00:02:17 66° 101° (E) 00:06:34 437.675
CUBEBUG 1 27 Apr 23:59:18 00:03:26 45° 261° (W) 00:07:36 437.445
VELOX 1 28 Apr 00:01:55 00:05:20 21° 267° (W) 00:08:38 145.980
QB50P1 28 Apr 00:15:05 00:19:24 81° 285° (WNW) 00:23:42 145.935-145.965
AIST 1 28 Apr 00:21:40 00:25:43 42° 93° (E) 00:29:47
AISAT 28 Apr 00:22:21 00:24:28 13° 271° (W) 00:26:20 437.250
TISAT 1 28 Apr 00:30:25 00:34:35 82° 78° (ENE) 00:38:49 437.305
RS-15 28 Apr 00:33:19 00:44:32 55° 247° (WSW) 00:56:03 29.354- 29.394
ANTELSAT 28 Apr 00:37:56 00:41:48 25° 292° (WNW) 00:45:34 437.575/2403.000
BEESAT 28 Apr 00:38:07 00:41:11 18° 65° (ENE) 00:44:25 436.000
Cosmos 2491 28 Apr 00:38:12 00:45:35 28° 294° (WNW) 00:52:47 435.465 / 435.565
SWISSCUBE 28 Apr 00:40:41 00:44:05 20° 66° (ENE) 00:47:37 437.505
QB50P2 28 Apr 00:42:20 00:46:21 39° 288° (WNW) 00:50:21 145.880/145.840
NANOSAT C BR1 28 Apr 00:59:02 01:02:42 27° 290° (WNW) 01:06:17 145.865
POPSAT HIP 1 28 Apr 01:03:29 01:07:01 24° 291° (WNW) 01:10:28 437.405
BEESAT 3 28 Apr 01:09:20 01:09:55 10° 109° (ESE) 01:10:44 437.485
SPROUT 28 Apr 01:10:59 01:14:41 28° 265° (W) 01:18:21 437.525
BUGSAT 1 28 Apr 01:15:04 01:18:31 25° 291° (WNW) 01:21:55 437.445
Oscar 19 28 Apr 01:24:29 01:27:56 18° 91° (E) 01:31:34 437.125/150
KKS-1 28 Apr 01:32:50 01:33:39 11° 62° (ENE) 01:34:44 437.445
DUCHIFAT 1 28 Apr 01:33:38 01:35:39 13° 295° (WNW) 01:37:29 145.980
POLYITAN 1 28 Apr 01:35:58 01:37:43 12° 296° (WNW) 01:39:15 437.675
ITUPSAT 1 28 Apr 01:44:36 01:49:24 78° 75° (ENE) 01:54:12 437.325
Cosmos 2504 28 Apr 01:48:59 01:56:22 43° 272° (W) 02:03:11 435.465 / 435.565
CUSAT 1 28 Apr 02:00:47 02:01:58 11° 55° (NE) 02:03:49 437.405
AIST 1 28 Apr 02:01:00 02:03:39 15° 290° (WNW) 02:06:10
ITAMSAT 1 28 Apr 02:05:39 02:07:48 13° 88° (E) 02:10:16 435.822/435.867
BEESAT 28 Apr 02:14:01 02:18:41 52° 260° (W) 02:23:21 436.000
SWISSCUBE 28 Apr 02:17:05 02:21:40 44° 261° (W) 02:26:14 437.505
STARS 28 Apr 02:18:46 02:21:58 21° 67° (ENE) 02:25:18 437.465
AIST 2 28 Apr 02:27:06 02:30:12 20° 112° (ESE) 02:33:25 435.215
BEESAT 3 28 Apr 02:43:21 02:47:25 70° 304° (WNW) 02:51:32 437.485
BEESAT 2 28 Apr 02:47:58 02:52:05 76° 303° (WNW) 02:56:15 435.950
Gurwin Techsat 1B 28 Apr 02:48:11 02:52:48 31° 95° (E) 02:57:30 435.225
DANDE 28 Apr 02:53:09 02:58:42 22° 65° (ENE) 03:05:03 436.750
Oscar 19 28 Apr 03:02:36 03:07:41 53° 288° (WNW) 03:12:43 437.125/150
KKS-1 28 Apr 03:05:17 03:09:43 79° 256° (WSW) 03:14:11 437.445
GONETS M04 28 Apr 03:13:04 03:21:32 48° 74° (ENE) 03:30:00
ITUPSAT 1 28 Apr 03:26:52 03:27:58 10° 273° (W) 03:28:43 437.325
CUSAT 1 28 Apr 03:38:56 03:46:30 53° 75° (ENE) 03:54:39 437.405
ITAMSAT 1 28 Apr 03:42:47 03:47:58 73° 285° (WNW) 03:53:08 435.822/435.867
HORYU 2 28 Apr 03:43:11 03:46:18 19° 92° (E) 03:49:33 437.375
JAS-2 28 Apr 03:49:14 03:53:02 18° 86° (E) 03:56:51 435.910
MOZHAYETS 4 28 Apr 03:51:35 03:55:04 22° 68° (ENE) 03:58:40
STARS 28 Apr 03:54:10 03:58:13 36° 263° (W) 04:02:18 437.465
AIST 2 28 Apr 04:04:31 04:08:33 40° 309° (NW) 04:12:37 435.215
Cosmos 2499 28 Apr 04:10:39 04:15:08 17° 60° (ENE) 04:19:51 435.465 / 435.565
Gurwin Techsat 1B 28 Apr 04:28:03 04:32:48 33° 292° (WNW) 04:37:29 435.225
BEESAT 2 28 Apr 04:29:53 04:30:59 11° 323° (NW) 04:31:56 435.950
DANDE 28 Apr 04:34:59 04:42:45 86° 262° (W) 04:51:23 436.750
AO-7 28 Apr 04:57:50 05:06:05 63° 103° (ESE) 05:14:21 29.400- 29.500
GONETS M04 28 Apr 05:10:16 05:18:13 37° 273° (W) 05:25:57
HORYU 2 28 Apr 05:18:56 05:23:10 39° 289° (WNW) 05:27:19 437.375
CUSAT 1 28 Apr 05:22:02 05:29:06 36° 270° (W) 05:36:22 437.405
M-CUBED/EXP-1 PRIME 28 Apr 05:22:16 05:26:18 28° 64° (ENE) 05:30:24 437.505
MOZHAYETS 4 28 Apr 05:27:46 05:32:06 37° 263° (W) 05:36:25
JAS-2 28 Apr 05:32:46 05:38:57 62° 288° (WNW) 05:44:25 435.910
CUBESAT XI-V 28 Apr 05:35:32 05:38:57 21° 67° (ENE) 05:42:28 437.345
AUBIESAT-1 28 Apr 06:01:21 06:06:03 59° 69° (ENE) 06:10:46 437.475
Cosmos 2499 28 Apr 06:01:55 06:09:41 87° 263° (W) 06:16:53 435.465 / 435.565
DANDE 28 Apr 06:20:12 06:25:25 18° 275° (W) 06:30:27 436.750
PCSat 28 Apr 06:34:25 06:35:52 11° 104° (ESE) 06:37:39 145.827
PRISM 28 Apr 06:34:49 06:38:52 53° 74° (ENE) 06:42:55 437.425
STRAND 1 28 Apr 06:44:58 06:49:56 55° 72° (ENE) 06:54:55 437.568
AO-7 28 Apr 06:51:22 06:58:26 31° 302° (WNW) 07:05:20 29.400- 29.500
CUTE-I 28 Apr 06:52:09 06:57:10 42° 98° (E) 07:02:13 437.470
M-CUBED/EXP-1 PRIME 28 Apr 06:56:35 07:01:00 35° 259° (W) 07:05:25 437.505
Cubesat XI-IV 28 Apr 07:02:31 07:07:43 53° 100° (E) 07:12:55 437.490
CUBESAT XI-V 28 Apr 07:11:51 07:16:10 38° 263° (W) 07:20:29 437.345
AUBIESAT-1 28 Apr 07:38:10 07:41:11 16° 265° (W) 07:44:01 437.475
O/OREOS (USA 219) 28 Apr 07:51:48 07:56:17 67° 66° (ENE) 08:00:43 437.305
Cosmos 2499 28 Apr 07:57:59 08:01:38 14° 282° (WNW) 08:04:42 435.465 / 435.565
PRISM 28 Apr 08:12:55 08:14:43 12° 270° (W) 08:16:18 437.425
PCSat 28 Apr 08:13:10 08:18:36 90° 344° (NNW) 08:24:04 145.827
STRAND 1 28 Apr 08:26:08 08:29:33 17° 269° (W) 08:32:45 437.568
CANX-2 28 Apr 08:29:57 08:31:24 12° 88° (E) 08:33:07 2200.000
CUTE-I 28 Apr 08:32:44 08:37:04 25° 294° (WNW) 08:41:17 437.470
CUTE 1.7 + AOD 2 28 Apr 08:38:11 08:40:11 13° 89° (E) 08:42:23 437.475
Cubesat XI-IV 28 Apr 08:43:34 08:47:28 21° 296° (WNW) 08:51:14 437.490
GOMX 1 28 Apr 08:45:46 08:50:19 30° 94° (E) 08:55:05 467.674
Cosmos 2491 28 Apr 08:50:34 08:58:03 31° 68° (ENE) 09:05:44 435.465 / 435.565
DOVE 4 28 Apr 09:08:46 09:13:24 33° 95° (E) 09:18:13 437.250
BRITE-PL 28 Apr 09:12:06 09:17:19 78° 101° (E) 09:22:53 437.365/2234.400
UNISAT 6 28 Apr 09:20:21 09:21:46 12° 62° (ENE) 09:23:27 437.425
COMPASS 1 28 Apr 09:20:43 09:24:15 27° 95° (E) 09:27:50 437.405
HO-68 28 Apr 09:26:48 09:33:49 54° 100° (E) 09:40:48 435.675
CINEMA 3 28 Apr 09:32:36 09:36:55 29° 94° (E) 09:41:17 145.822/145.860
O/OREOS (USA 219) 28 Apr 09:33:54 09:35:11 11° 261° (W) 09:36:11 437.305
UWE-3 28 Apr 09:35:08 09:36:46 12° 87° (E) 09:38:42 435.000/436.395/437.385
SEEDS 28 Apr 09:50:14 09:54:29 74° 101° (E) 09:58:41 437.485
Oscar 11 28 Apr 09:54:41 09:58:18 26° 94° (E) 10:01:58 145.826/435.025
YUBILEINY 28 Apr 09:55:06 10:02:31 33° 85° (E) 10:10:08 435.215
PCSat 28 Apr 09:59:27 10:02:52 16° 319° (NW) 10:06:08 145.827
ANTELSAT 28 Apr 09:59:43 10:03:36 29° 69° (ENE) 10:07:39 437.575/2403.000
AAUSAT CUBESAT 2 28 Apr 10:00:28 10:04:38 67° 100° (E) 10:08:46 437.432
QB50P2 28 Apr 10:01:10 10:03:14 14° 65° (ENE) 10:05:30 145.880/145.840
ZACube-1 28 Apr 10:02:23 10:05:34 19° 91° (E) 10:08:52 437.345
CANX-2 28 Apr 10:03:35 10:07:48 57° 286° (WNW) 10:11:58 2200.000
CUTE 1.7 + AOD 2 28 Apr 10:12:19 10:16:29 50° 286° (WNW) 10:20:35 437.475
NANOSAT C BR1 28 Apr 10:16:16 10:19:13 19° 67° (ENE) 10:22:18 145.865
POPSAT HIP 1 28 Apr 10:20:34 10:23:44 21° 68° (ENE) 10:27:01 437.405
GOMX 1 28 Apr 10:23:42 10:28:26 35° 289° (WNW) 10:33:18 467.674
BUGSAT 1 28 Apr 10:30:18 10:32:59 18° 67° (ENE) 10:35:49 437.445
AIST 1 28 Apr 10:31:30 10:32:20 11° 66° (ENE) 10:33:26
SO-50 28 Apr 10:32:35 10:36:32 29° 114° (ESE) 10:40:42 436.795
DX 1 28 Apr 10:33:23 10:36:43 22° 94° (E) 10:40:09 434.975-435.025
AISAT 28 Apr 10:36:39 10:37:48 11° 88° (E) 10:39:13 437.250
ISS 28 Apr 10:42:57 10:45:52 32° 136° (SE) 10:48:50 145.825
DOVE 4 28 Apr 10:46:33 10:51:06 31° 290° (WNW) 10:55:40 437.250
Cosmos 2491 28 Apr 10:46:52 10:55:31 59° 268° (W) 11:04:04 435.465 / 435.565
TIGRISAT 28 Apr 10:47:45 10:52:17 88° 76° (ENE) 10:56:58 435.000
DUCHIFAT 1 28 Apr 10:48:10 10:52:06 41° 72° (ENE) 10:56:07 145.980
AIST 2 28 Apr 10:48:56 10:51:29 16° 41° (NE) 10:54:09 435.215
CUBEBUG 2 28 Apr 10:49:04 10:53:54 90° 224° (SW) 10:58:39 437.445
POLYITAN 1 28 Apr 10:50:41 10:54:43 46° 73° (ENE) 10:58:50 437.675
DELFI C3 28 Apr 10:52:29 10:56:33 90° 293° (WNW) 11:00:34 145.870
BRITE-PL 28 Apr 10:52:30 10:55:22 15° 295° (WNW) 10:58:05 437.365/2234.400
UNISAT 6 28 Apr 10:53:23 10:57:57 78° 258° (WSW) 11:02:37 437.425
COMPASS 1 28 Apr 10:56:25 10:59:52 25° 291° (WNW) 11:03:14 437.405
BEESAT 3 28 Apr 11:02:29 11:06:34 62° 55° (NE) 11:10:34 437.485
QB50P1 28 Apr 11:07:20 11:11:31 72° 76° (ENE) 11:15:45 145.935-145.965
BEESAT 2 28 Apr 11:07:39 11:11:44 58° 55° (NE) 11:15:45 435.950
UWE-3 28 Apr 11:09:10 11:13:52 68° 285° (WNW) 11:18:30 435.000/436.395/437.385
HUMSAT D 28 Apr 11:09:17 11:13:28 45° 98° (E) 11:17:36 437.325/437.525
CINEMA 3 28 Apr 11:09:37 11:14:06 33° 290° (WNW) 11:18:32 145.822/145.860
FUNcube-1 28 Apr 11:10:57 11:15:35 82° 283° (WNW) 11:20:07 145.935
UKube-1 28 Apr 11:11:40 11:15:55 54° 100° (E) 11:20:11 .
HO-68 28 Apr 11:15:06 11:21:15 31° 298° (WNW) 11:27:13 435.675
ESTCUBE 1 28 Apr 11:23:57 11:27:13 20° 92° (E) 11:30:37 437.505/2401.250
50 SAT 28 Apr 11:26:16 11:30:08 41° 98° (E) 11:33:56 437.505
SEEDS 28 Apr 11:29:08 11:29:44 10° 297° (WNW) 11:30:06 437.485
Oscar 11 28 Apr 11:30:46 11:34:28 27° 290° (WNW) 11:38:05 145.826/435.025
QB50P2 28 Apr 11:34:36 11:38:44 53° 260° (W) 11:42:55 145.880/145.840
ANTELSAT 28 Apr 11:36:25 11:40:22 28° 266° (W) 11:44:20 437.575/2403.000
ZACube-1 28 Apr 11:37:47 11:42:10 42° 288° (WNW) 11:46:27 437.345
AAUSAT CUBESAT 2 28 Apr 11:38:32 11:39:46 11° 296° (WNW) 11:40:46 437.432
CUBEBUG 1 28 Apr 11:48:27 11:52:22 32° 96° (E) 11:56:20 437.445
YUBILEINY 28 Apr 11:50:23 11:59:00 54° 284° (WNW) 12:07:36 435.215
NANOSAT C BR1 28 Apr 11:50:58 11:54:51 35° 263° (W) 11:58:45 145.865
VELOX 1 28 Apr 11:51:22 11:55:50 73° 102° (ESE) 12:00:16 145.980
POPSAT HIP 1 28 Apr 11:55:40 11:59:27 31° 264° (W) 12:03:15 437.405
BUGSAT 1 28 Apr 12:04:34 12:08:15 34° 263° (W) 12:11:57 437.445
AIST 1 28 Apr 12:06:18 12:10:32 63° 265° (W) 12:14:46
DX 1 28 Apr 12:09:07 12:13:03 33° 290° (WNW) 12:16:56 434.975-435.025
AISAT 28 Apr 12:10:29 12:14:55 67° 286° (WNW) 12:19:22 437.250
SO-50 28 Apr 12:12:42 12:17:01 35° 312° (NW) 12:21:26 436.795
TISAT 1 28 Apr 12:16:58 12:18:58 13° 90° (E) 12:21:10 437.305
ISS 28 Apr 12:19:16 12:22:13 31° 333° (NNW) 12:25:11 145.825
DUCHIFAT 1 28 Apr 12:25:32 12:28:11 16° 269° (W) 12:30:42 145.980
AIST 2 28 Apr 12:26:21 12:30:34 66° 240° (WSW) 12:34:41 435.215
POLYITAN 1 28 Apr 12:28:33 12:30:58 14° 270° (W) 12:33:12 437.675
CUBEBUG 2 28 Apr 12:28:47 12:29:55 11° 298° (WNW) 12:30:45 437.445
